Location: Unspecified
(49.8670°N, 0.0000°E)
Time: 06:36:39
(UTC+00:00)

Vanguard 1 - Pass Details

Date: 22 June 2019
Orbit: 653 x 3830 km, 34.3° (Epoch: 17 July)

Event Time Altitude Azimuth Distance (km) Brightness Sun altitude
Rises 05:49:23 0° 258° (WSW) 6,416 13.6 15.8°
Reaches altitude 10° 05:54:56 10° 249° (WSW) 4,829 13.0 16.6°
Maximum altitude 06:04:45 29° 197° (SSW) 2,505 12.0 18.1°
Drops below altitude 10° 06:10:55 10° 139° (SE) 2,957 13.0 19.1°
Sets 06:13:26 0° 128° (SE) 3,634 13.6 19.5°
